Regional Weather Roundup
Issued by NWS Green Bay, WI

Home | Current Version | Previous Version | Text Only | Print | Product List | Glossary On
Versions: 1 2 3 4 5 6 7 8 9 10 11 12 13 14 15 16 17 18 19 20 21 22 23 24 25 26 27 28 29 30 31 32 33 34 35 36 37 38 39 40 41 42 43 44 45 46 47 48 49 50
000
ASUS43 KGRB 060210
RWRGRB

NORTH-CENTRAL AND NORTHEAST WISCONSIN REGIONAL WEATHER ROUNDUP
NATIONAL WEATHER SERVICE GREEN BAY WI
800 PM CST THU MAR 05 2015

WIZ005-009-010>012-018-019-060300-
NORTH CENTRAL WISCONSIN

CITY           SKY/WX    TMP DP  RH WIND       PRES   REMARKS
IRONWOOD       CLEAR      9 -11  40 SW12      30.25S WCI  -6
MANITOWISH WTR CLEAR      4 -13  44 SW8       30.27S WCI  -9
ARBOR VITAE    CLEAR      6 -13  41 SW7       30.27F WCI  -6
EAGLE RIVER      N/A      5 -14  41 SW9       30.26S WCI -10
LAND O LAKES   CLEAR      6 -12  42 SW6       30.25S WCI  -4
RHINELANDER    CLEAR      4 -10  52 SW12      30.30R WCI -12
PHILLIPS       PTCLDY     2 -13  50 SW5       30.31S WCI  -8
ANTIGO         PTCLDY     1  -9  61 W9        30.32F WCI -14
TOMAHAWK       PTCLDY     3 -10  54 CALM      30.33S
MERRILL        PTCLDY     1 -10  57 CALM      30.35F
$$

WIZ013-073-060300-
NORTHEAST WISCONSIN

CITY           SKY/WX    TMP DP  RH WIND       PRES   REMARKS
IRON MOUNTAIN  CLEAR      8 -11  41 SW6       30.29F WCI  -2
MARINETTE      CLEAR     10  -8  44 SW7       30.38F WCI   0
OCONTO         CLEAR      8  -7  49 SW6       30.42S WCI  -2
$$

WIZ017-030-035>037-045-060300-
CENTRAL WISCONSIN

CITY           SKY/WX    TMP DP  RH WIND       PRES   REMARKS
MEDFORD        PTCLDY     0 -12  57 SW3       30.33F
WAUSAU         PTCLDY     4  -9  55 SW5       30.36F WCI  -5
MOSINEE        CLEAR      3  -9  55 W6        30.38S WCI  -8
MARSHFIELD     PTCLDY     5  -9  52 SW6       30.37F WCI  -6
WISC RAPIDS    PTCLDY     9  -9  44 W6        30.42F WCI  -1
STEVENS POINT  PTCLDY    -1 -10  63 CALM      30.40F
WAUPACA        PTCLDY     9  -6  50 SW5       30.43S WCI   1
SHAWANO        PTCLDY    10  -8  44 W5        30.41F WCI   2
CLINTONVILLE   PTCLDY     9  -8  47 SW3       30.41F
$$

WIZ038-039-048-051-060300-
FOX VALLEY

CITY           SKY/WX    TMP DP  RH WIND       PRES   REMARKS
NWS GREEN BAY  PTCLDY     8  -6  52 SW5       30.43F WCI   0
APPLETON       CLEAR      9  -8  47 SW7       30.42S WCI  -3
OSHKOSH        PTCLDY    10  -5  50 VRB3      30.43F
FOND DU LAC    CLEAR      8  -3  61 SW3       30.45S
$$

WIZ022-050-052-060300-
EAST CENTRAL WISCONSIN

CITY           SKY/WX    TMP DP  RH WIND       PRES   REMARKS
STURGEON BAY   CLEAR      9  -8  47 SW9       30.42F WCI  -5
MANITOWOC      PTCLDY     7  -3  64 SW5       30.45F WCI  -2
SHEBOYGAN      PTCLDY     5  -6  60 SW8       30.45F WCI  -8
$$

LMZ563-521-522-541>543-060300-
LAKESHORE

STATION/POSITION TIME  TEMP    WIND        PRES    VSBY  WAVE
                       AIR SEA DIR/SP/G                  HT/PER
                 (UTC) (F)     (DEG/KT/KT) (MB)    (MI)  (FT/S)
SHEBOYGAN LKSHOR 0200   13     210/ 11/ 12 1033.4F
KEWAUNEE LKSHORE 0200   10     220/  4/  6 1029.7F
NORTHPORT PIER   0200   10     210/  4/  8 1029.1S
SISTER BAY LKSHO 0200    9     200/ 10/ 12   N/A
CHAMBERS ISLAND  0200   10     190/  8/ 16 1029.1S
MENOMINEE LKSHOR 0200   11     210/  9     1029.9F
$$


USA.gov is the U.S. government's official web portal to all federal, state and local government web resources and services.